SCP
0 0 0 0 0 0 0 0 0 0 0 0 0 0 0 0 0 0 0 0 0 0 0 0 0 0 0
0 0 0 0 0 0 0 0 0 0 0 0 0 0 0 0 0 0 0 0 0 0 0 0 0 0 0
0 0 0 0 0 0 0 0 0 0 0 0 0 0 0 0 0 0 0 0 0 0 0 0 0 0 0
0 0 0 0 0 0 0 0 0 0 0 0 0 0 0 0 0 0 0 0 0 0 0 0 0 0 0
0 0 0 0 0 0 0 0 0 0 0 0 0 0 0 0 0 0 0 0 0 0 0 0 0 0 0
0 0 0 0 0 0 0 0 0 0 0 0 0 0 0 0 0 0 0 0 0 0 0 0 0 0 0
0 0 0 0 0 0 0 0 0 0 0 0 0 0 0 0 0 0 0 0 0 0 0 0 0 0 0
0 0 0 0 0 0 0 0 0 0 0 0 0 0 0 0 0 -0 0 0 0 0 0 0 0 0 0
0 0 0 0 0 0 0 0 0 0 0 0 0 0 0 0 0 0 0 0 0 0 0 0 0 0 0
0 0 0 0 0 0 0 0 0 0 0 0 0 0 0 0 0 0 0 0 0 0 0 0 0 0 0
0 0 0 0 0 0 0 0 0 0 0 0 0 0 0 0 0 0 0 0 0 0 0 0 0 0 0
0 0 0 0 0 0 0 0 0 0 0 0 0 0 0 0 0 0 0 0 0 0 0 0 0 0 0
0 0 0 0 0 0 0 0 0 0 0 0 0 0 0 0 0 0 0 0 0 0 0 0 0 0 0
0 0 0 0 0 0 0 0 0 0 0 0 0 0 0 0 0 0 0 0 0 0 0 0 0 0 0
0 0 0 0 0 0 0 0 0 0 0 0 0 0 0 0 0 0 0 0 0 0 0 0 0 0 0
0 0 0 0 0 0 0 0 0 0 0 0 0 0 0 0 0 0 0 0 0 0 0 0 0 0 0
0 0 0 0 0 0 0 0 0 0 0 0 0 0 0 0 0 0 0 0 0 0 0 0 0 0 0
Wind_Speed_500mb
41 44 45 47 47 50 52 48 51 53 55 55 56 54 56 52 49 50 53 52 50 48 47 47 47 45 43
43 44 46 46 47 52 47 51 57 57 56 58 52 57 58 54 59 58 54 52 52 52 50 50 49 49 45
41 44 46 45 52 44 51 57 56 61 59 53 60 56 62 58 56 53 51 51 51 50 47 47 47 47 47
41 43 45 49 48 53 64 62 64 67 58 64 58 57 55 53 52 50 46 47 52 50 53 54 52 50 49
44 49 51 52 53 60 66 69 70 61 70 68 67 65 62 55 52 44 50 55 57 56 53 52 50 50 48
43 49 53 55 60 60 63 72 72 62 73 73 67 69 63 64 61 60 63 61 54 51 50 52 51 49 46
40 46 53 55 55 59 63 62 64 69 67 76 69 69 69 71 67 57 53 46 48 49 48 39 42 44 44
36 44 47 49 50 53 56 61 64 60 60 75 66 75 77 76 62 38 36 48 63 61 56 54 50 47 49
42 42 40 37 38 46 52 62 73 70 63 55 71 81 81 74 46 48 75 64 63 57 54 54 53 55 58
41 39 42 44 41 42 52 57 63 69 62 68 71 76 77 56 83 82 82 74 67 61 58 52 48 48 51
42 47 48 42 42 43 44 45 51 56 59 57 69 74 64 86 81 86 85 81 73 64 58 49 43 42 48
47 47 48 50 51 47 42 42 41 52 56 53 65 66 69 76 85 87 86 82 75 64 52 54 50 44 42
47 48 51 52 49 46 45 47 51 49 49 53 58 56 62 71 83 87 86 84 59 60 58 58 58 48 51
44 48 50 51 50 48 53 55 61 59 54 57 54 59 66 66 73 82 77 72 70 68 70 70 64 50 48
46 48 52 55 56 55 55 60 61 67 72 66 61 61 64 69 73 72 71 75 76 75 69 63 60 50 46
45 50 53 53 57 55 54 59 65 72 73 73 76 76 76 76 58 61 74 74 69 61 54 59 62 50 48
45 46 51 52 54 57 62 65 72 74 75 80 75 74 74 73 90 70 69 65 65 64 62 64 69 61 52
Wind_Direction_500mb
319 325 329 330 332 334 332 330 333 332 329 328 327 325 322 323 320 314 314 311 304 299 294 292 290 289 293
321 324 328 329 329 328 331 328 328 328 330 329 327 325 325 321 316 317 316 307 302 299 295 293 288 287 287
312 317 324 327 328 328 325 325 328 331 333 331 330 326 319 320 316 318 311 310 309 303 299 296 291 288 287
310 321 324 328 327 326 326 328 329 331 333 329 329 328 328 325 319 315 318 317 309 302 298 297 292 288 286
324 326 329 330 329 325 321 325 325 331 329 330 334 334 335 332 329 322 312 307 304 299 298 295 294 291 287
322 321 323 321 319 321 321 325 326 329 330 327 334 331 332 330 326 317 317 315 314 308 298 289 294 295 291
309 314 314 318 324 323 321 320 319 324 326 323 332 326 327 324 325 326 315 319 315 312 314 302 291 292 291
308 306 312 317 315 311 312 309 312 320 324 318 329 325 325 327 334 330 324 314 309 309 307 301 295 294 287
306 308 313 312 314 310 307 313 314 316 327 324 327 326 326 327 338 324 323 324 318 315 308 304 295 289 282
318 315 314 312 307 306 309 311 314 320 327 326 324 329 324 324 322 326 327 326 322 317 314 308 305 289 288
319 320 317 318 318 317 316 319 317 311 322 323 321 324 318 314 319 323 324 325 323 321 321 318 305 292 289
327 330 328 327 323 321 323 324 318 312 321 324 320 321 318 315 315 322 324 324 323 321 322 321 308 293 282
329 328 326 325 326 328 328 328 326 326 327 329 328 324 319 315 312 313 313 321 321 321 321 317 315 305 295
332 331 336 340 337 334 329 331 328 330 333 335 335 330 321 319 318 310 318 313 319 319 317 311 307 300 297
338 341 339 338 336 336 334 331 329 330 331 337 338 333 328 323 315 318 318 316 317 315 313 307 304 296 292
340 339 337 337 333 336 335 333 330 332 331 336 335 333 332 328 317 308 311 314 320 318 314 311 308 301 292
342 342 339 335 334 336 335 333 333 332 331 332 331 327 316 309 324 325 316 323 325 324 321 312 306 303 298
Wind_Speed_850mb
41 44 45 47 47 50 52 48 51 53 55 55 56 54 56 52 49 50 53 52 50 48 47 47 47 45 43
43 44 46 46 47 52 47 51 57 57 56 58 52 57 58 54 59 58 54 52 52 52 50 50 49 49 45
41 44 46 45 52 44 51 57 56 61 59 53 60 56 62 58 56 53 51 51 51 50 47 47 47 47 47
41 43 45 49 48 53 64 62 64 67 58 64 58 57 55 53 52 50 46 47 52 50 53 54 52 50 49
44 49 51 52 53 60 66 69 70 61 70 68 67 65 62 55 52 44 50 55 57 56 53 52 50 50 48
43 49 53 55 60 60 63 72 72 62 73 73 67 69 63 64 61 60 63 61 54 51 50 52 51 49 46
40 46 53 55 55 59 63 62 64 69 67 76 69 69 69 71 67 57 53 46 48 49 48 39 42 44 44
36 44 47 49 50 53 56 61 64 60 60 75 66 75 77 76 62 38 36 48 63 61 56 54 50 47 49
42 42 40 37 38 46 52 62 73 70 63 55 71 81 81 74 46 48 75 64 63 57 54 54 53 55 58
41 39 42 44 41 42 52 57 63 69 62 68 71 76 77 56 83 82 82 74 67 61 58 52 48 48 51
42 47 48 42 42 43 44 45 51 56 59 57 69 74 64 86 81 86 85 81 73 64 58 49 43 42 48
47 47 48 50 51 47 42 42 41 52 56 53 65 66 69 76 85 87 86 82 75 64 52 54 50 44 42
47 48 51 52 49 46 45 47 51 49 49 53 58 56 62 71 83 87 86 84 59 60 58 58 58 48 51
44 48 50 51 50 48 53 55 61 59 54 57 54 59 66 66 73 82 77 72 70 68 70 70 64 50 48
46 48 52 55 56 55 55 60 61 67 72 66 61 61 64 69 73 72 71 75 76 75 69 63 60 50 46
45 50 53 53 57 55 54 59 65 72 73 73 76 76 76 76 58 61 74 74 69 61 54 59 62 50 48
45 46 51 52 54 57 62 65 72 74 75 80 75 74 74 73 90 70 69 65 65 64 62 64 69 61 52
Wind_Direction_850mb
319 325 329 330 332 334 332 330 333 332 329 328 327 325 322 323 320 314 314 311 304 299 294 292 290 289 293
321 324 328 329 329 328 331 328 328 328 330 329 327 325 325 321 316 317 316 307 302 299 295 293 288 287 287
312 317 324 327 328 328 325 325 328 331 333 331 330 326 319 320 316 318 311 310 309 303 299 296 291 288 287
310 321 324 328 327 326 326 328 329 331 333 329 329 328 328 325 319 315 318 317 309 302 298 297 292 288 286
324 326 329 330 329 325 321 325 325 331 329 330 334 334 335 332 329 322 312 307 304 299 298 295 294 291 287
322 321 323 321 319 321 321 325 326 329 330 327 334 331 332 330 326 317 317 315 314 308 298 289 294 295 291
309 314 314 318 324 323 321 320 319 324 326 323 332 326 327 324 325 326 315 319 315 312 314 302 291 292 291
308 306 312 317 315 311 312 309 312 320 324 318 329 325 325 327 334 330 324 314 309 309 307 301 295 294 287
306 308 313 312 314 310 307 313 314 316 327 324 327 326 326 327 338 324 323 324 318 315 308 304 295 289 282
318 315 314 312 307 306 309 311 314 320 327 326 324 329 324 324 322 326 327 326 322 317 314 308 305 289 288
319 320 317 318 318 317 316 319 317 311 322 323 321 324 318 314 319 323 324 325 323 321 321 318 305 292 289
327 330 328 327 323 321 323 324 318 312 321 324 320 321 318 315 315 322 324 324 323 321 322 321 308 293 282
329 328 326 325 326 328 328 328 326 326 327 329 328 324 319 315 312 313 313 321 321 321 321 317 315 305 295
332 331 336 340 337 334 329 331 328 330 333 335 335 330 321 319 318 310 318 313 319 319 317 311 307 300 297
338 341 339 338 336 336 334 331 329 330 331 337 338 333 328 323 315 318 318 316 317 315 313 307 304 296 292
340 339 337 337 333 336 335 333 330 332 331 336 335 333 332 328 317 308 311 314 320 318 314 311 308 301 292
342 342 339 335 334 336 335 333 333 332 331 332 331 327 316 309 324 325 316 323 325 324 321 312 306 303 298